sat.trackr.live / text

‹ back to catalog

STARLINK-37619

NORAD 69309 · 2026-119P

PAYLOAD ACTIVE UNKNOWN

§ Identity

Operator
Country
US
Launch date
2026-05-30
Launch site
AFWTR
Launch vehicle
Mass (kg)
RCS (m²)

Purposes: comms

External: N2YO · Heavens-Above · Gunter

§ Orbital elements

Epoch: 2026-09-19T12:23:32.971776Z

Period
93.90 min
Inclination
97.2838°
Eccentricity
0.0000937
Mean motion
15.33471609 rev/d
Perigee alt
464.8 km
Apogee alt
466.1 km
Semi-major
6,843.6 km
B*
5.3370e-4
RAAN
287.2801°
Arg perigee
206.6998°
Mean anomaly
153.4197°
Rev number
1,851

§ Raw data

STARLINK-376191 69309U 26119P   26262.51635384  .00017208  00000+0  53370-3 0  99972 69309  97.2838 287.2801 0000937 206.6998 153.4197 15.33471609 18517

JSON: /api/v1/satellites/69309 · /tle

For live sub-satellite position, see the globe view (requires WebGL).

§ Visibility from observer

Set your observer location to see the next 7 days of passes ≥ 10°. The values pass through the URL so the page stays shareable.

No JS? Fill the form by hand. The geolocation button needs JavaScript.